Powrót do katalogu

STARLINK-36107

AktywnyŁącznośćVLEO
NORAD 66979·PAYLOAD·🇺🇸 United States

Wystrzelony Dec 8, 2025 z Cape Canaveral Space Force Station

Loading…

Następne Przeloty (najbliższe 24 godziny)

TLE

ŚwieżeSource: CelesTrak SupGP

Epoka: Sep 15, 2026, 02:43 UTC

1 66979C 25288W   26258.11368056 -.00018535  00000+0 -67131-3 0  2587
2 66979  43.0035  34.0780 0001630 265.4828  61.3296 15.27589189    14

Śledź STARLINK-36107 w czasie rzeczywistym z AllMySat

Download on the App Store